sat.trackr.live / text

‹ back to catalog

ONEWEB-0129

NORAD 47275 · 2020-100T

PAYLOAD ACTIVE UNKNOWN

§ Identity

Operator
Country
UK
Launch date
2020-12-18
Launch site
VOSTO
Launch vehicle
Mass (kg)
RCS (m²)

Purposes: comms

External: N2YO · Heavens-Above · Gunter

§ Orbital elements

Epoch: 2026-05-25T03:20:20.453568Z

Period
109.72 min
Inclination
87.8959°
Eccentricity
0.0001206
Mean motion
13.12440731 rev/d
Perigee alt
1,212.8 km
Apogee alt
1,214.6 km
Semi-major
7,591.9 km
B*
-9.3429e-4
RAAN
355.2403°
Arg perigee
125.1269°
Mean anomaly
234.9972°
Rev number
26,165

§ Raw data

ONEWEB-01291 47275U 20100T   26145.13912562 -.00000323  00000+0 -93429-3 0  99942 47275  87.8959 355.2403 0001206 125.1269 234.9972 13.12440731261652

JSON: /api/v1/satellites/47275 · /tle

For live sub-satellite position, see the globe view (requires WebGL).

§ Visibility from observer

Set your observer location to see the next 7 days of passes ≥ 10°. The values pass through the URL so the page stays shareable.

No JS? Fill the form by hand. The geolocation button needs JavaScript.